GW5292 Weather Reports


Display with metric or nautical units.
time (UTC)temp
F
wind
direction
speed
MPH
gust
MPH
rain 1hr
in
rain 24hr
in
rain mn
in
humidity
%
barometer
mb
20260510031521 52 41 0.0 0.0 0.00 0.11 0.11 90 1010.8
20260510030020 53 41 0.0 2.0 0.00 0.11 0.11 91 1010.8
20260510024506 54 41 0.0 0.0 0.00 0.11 0.11 91 1010.8
20260510023006 54 33 1.0 2.0 0.00 0.11 0.11 92 1010.6
20260510021525 54 161 0.0 2.0 0.00 0.11 0.11 92 1010.6
20260510020016 54 14 0.0 2.0 0.00 0.11 0.11 92 1010.4
20260510014523 54 352 0.0 0.0 0.00 0.11 0.11 90 1010.2
20260510013004 55 352 0.0 0.0 0.00 0.11 0.11 90 1010.2
20260510011508 55 352 0.0 2.0 0.00 0.11 0.11 89 1010.1
20260510010012 55 269 0.0 0.0 0.00 0.11 0.11 88 1010.0
20260510004525 56 269 0.0 2.0 0.00 0.11 0.11 86 1009.9
20260510003024 57 273 0.0 0.0 0.00 0.11 0.11 84 1009.8
20260510001509 57 273 0.0 2.0 0.00 0.11 0.11 82 1009.5
20260510000009 58 317 0.0 2.0 0.00 0.11 0.11 80 1009.3
20260509234515 59 290 0.0 1.0 0.00 0.11 0.11 77 1009.3
20260509233020 59 179 0.0 2.0 0.00 0.11 0.11 76 1009.2
20260509231523 59 59 0.0 2.0 0.00 0.11 0.11 79 1009.3
20260509230009 59 79 0.0 2.0 0.00 0.11 0.11 79 1009.2
20260509224511 59 165 0.0 1.0 0.00 0.11 0.11 78 1009.2
20260509223016 59 165 0.0 0.0 0.00 0.11 0.11 79 1009.2
20260509221523 59 173 0.0 3.0 0.00 0.11 0.11 78 1009.1
20260509220025 59 172 0.0 2.0 0.00 0.11 0.11 80 1009.3
20260509214510 59 173 0.0 2.0 0.00 0.11 0.11 82 1009.6
20260509213025 59 161 0.0 2.0 0.00 0.11 0.11 80 1009.9
20260509211520 58 146 0.0 2.0 0.00 0.11 0.11 82 1009.5
20260509210024 58 211 0.0 2.0 0.00 0.11 0.11 82 1009.7
20260509204530 58 211 0.0 2.0 0.00 0.11 0.11 84 1010.0
20260509203016 58 211 0.0 2.0 0.00 0.11 0.11 83 1010.2
20260509201518 59 200 1.0 3.0 0.00 0.11 0.11 83 1010.3
20260509200024 58 87 0.0 2.0 0.00 0.11 0.11 85 1010.3
20260509194503 58 177 0.0 2.0 0.00 0.11 0.11 85 1010.3
20260509193018 57 15 0.0 2.0 0.01 0.11 0.11 86 1010.5
20260509191518 56 15 0.0 2.0 0.02 0.11 0.11 87 1010.5
20260509190003 56 69 0.0 3.0 0.03 0.11 0.11 89 1010.7
20260509184512 55 189 0.0 2.0 0.03 0.11 0.11 89 1011.0
20260509183006 55 167 0.0 3.0 0.02 0.10 0.10 89 1011.5
20260509181511 55 167 0.0 0.0 0.02 0.09 0.09 90 1011.4
20260509180020 54 167 0.0 3.0 0.01 0.08 0.08 87 1011.4
20260509174502 55 167 0.0 2.0 0.02 0.08 0.08 88 1011.5
20260509173006 55 202 1.0 2.0 0.05 0.08 0.08 88 1011.6
20260509171509 55 202 0.0 2.0 0.06 0.07 0.07 88 1011.5
20260509170017 55 202 0.0 2.0 0.07 0.07 0.07 88 1011.3
20260509164519 55 202 0.0 2.0 0.06 0.06 0.06 86 1011.4
20260509163005 56 202 0.0 2.0 0.03 0.03 0.03 84 1011.4
20260509161508 57 202 1.0 3.0 0.01 0.01 0.01 82 1011.7
20260509160012 57 209 0.0 4.0 0.00 0.00 0.00 78 1011.8
20260509154518 58 211 2.0 4.0 0.00 0.00 0.00 72 1011.8
20260509153026 59 197 4.0 7.0 0.00 0.00 0.00 66 1011.9
20260509151508 60 175 3.0 6.0 0.00 0.00 0.00 67 1012.0
20260509150010 60 223 3.0 5.0 0.00 0.00 0.00 71 1011.8
20260509144514 59 204 2.0 6.0 0.00 0.00 0.00 72 1011.7
20260509143019 59 189 2.0 5.0 0.00 0.00 0.00 71 1011.7
20260509141526 59 205 2.0 3.0 0.00 0.00 0.00 71 1011.1
20260509140011 59 180 1.0 2.0 0.00 0.00 0.00 73 1011.2
20260509134512 59 196 0.0 2.0 0.00 0.00 0.00 74 1011.2
20260509133020 58 192 0.0 2.0 0.00 0.00 0.00 75 1011.3
20260509131522 57 138 1.0 2.0 0.00 0.00 0.00 75 1011.2
20260509130036 56 38 0.0 2.0 0.00 0.00 0.00 76 1011.3
20260509124511 56 33 0.0 2.0 0.00 0.00 0.00 77 1011.2
20260509123018 56 180 0.0 2.0 0.00 0.00 0.00 77 1011.2
20260509121525 55 20 0.0 2.0 0.00 0.00 0.00 78 1011.3
20260509120024 55 20 0.0 2.0 0.00 0.00 0.00 78 1011.3
20260509114528 54 20 0.0 2.0 0.00 0.00 0.00 79 1011.2
20260509113012 53 20 0.0 2.0 0.00 0.00 0.00 84 1011.2
20260509111520 52 20 0.0 2.0 0.00 0.00 0.00 87 1011.0
20260509110024 51 20 0.0 2.0 0.00 0.00 0.00 86 1011.0
20260509104509 51 20 0.0 2.0 0.00 0.00 0.00 87 1010.7
20260509103011 50 20 0.0 2.0 0.00 0.00 0.00 86 1010.9
20260509101523 51 20 0.0 2.0 0.00 0.00 0.00 85 1010.8
20260509100004 50 88 1.0 2.0 0.00 0.00 0.00 85 1010.7
20260509094503 50 135 0.0 2.0 0.00 0.00 0.00 86 1010.8
20260509093008 50 146 0.0 2.0 0.00 0.00 0.00 86 1010.8
20260509091514 50 146 0.0 2.0 0.00 0.00 0.00 86 1011.1
20260509090032 50 148 0.0 2.0 0.00 0.00 0.00 87 1011.2
20260509084504 50 148 0.0 2.0 0.00 0.00 0.00 86 1011.3
20260509083020 49 148 0.0 2.0 0.00 0.00 0.00 87 1011.3
20260509081512 50 148 0.0 2.0 0.00 0.00 0.00 86 1011.6
20260509080020 50 148 0.0 0.0 0.00 0.00 0.00 85 1011.6
20260509074522 50 148 0.0 0.0 0.00 0.00 0.00 85 1011.6
20260509073007 50 148 0.0 2.0 0.00 0.00 0.00 84 1011.6
20260509071511 51 111 0.0 0.0 0.00 0.00 0.00 83 1011.4
20260509070015 51 111 0.0 1.0 0.00 0.00 0.00 83 1011.4
20260509064520 51 97 0.0 2.0 0.00 0.00 0.00 83 1011.3
20260509063026 51 115 0.0 2.0 0.00 0.00 0.00 83 1011.4
20260509061508 51 114 0.0 0.0 0.00 0.00 0.00 82 1011.6
20260509060012 51 114 0.0 2.0 0.00 0.00 0.00 82 1011.9
20260509054516 51 109 0.0 0.0 0.00 0.00 0.00 81 1012.2
20260509053031 52 104 0.0 0.0 0.00 0.00 0.00 79 1012.3
20260509051526 53 104 0.0 0.0 0.00 0.00 0.00 78 1012.3
20260509050012 53 104 0.0 0.0 0.00 0.00 0.00 78 1012.3
20260509044518 53 104 0.0 2.0 0.00 0.00 0.00 77 1012.3
20260509043019 54 105 0.0 2.0 0.00 0.00 0.00 77 1012.1
20260509041503 54 33 1.0 2.0 0.00 0.00 0.00 76 1012.6
20260509040014 54 160 0.0 0.0 0.00 0.00 0.00 74 1013.0
20260509034513 54 160 0.0 2.0 0.00 0.00 0.00 75 1013.1
20260509033015 53 160 0.0 2.0 0.00 0.00 0.00 77 1013.0